Regional Weather Roundup
Issued by NWS

Home | Current Version | Previous Version | Text Only | Print | Product List | Glossary Off
Versions: 1 2 3 4 5 6 7 8 9 10 11 12 13 14 15 16 17 18 19 20 21 22 23 24 25 26 27 28 29 30 31 32 33 34 35 36 37 38 39 40 41 42 43 44 45 46 47 48 49 50

837
ASUS45 KSLC 221610
RWRUT

UTAH REGIONAL WEATHER ROUNDUP
NATIONAL WEATHER SERVICE SALT LAKE CITY UT
1000 AM MDT SUN APR 22 2018

UTZ001>011-023>025-221700-

NORTHERN UTAH

CITY           SKY/WX    TMP DP  RH WIND       PRES   REMARKS
BRIGHAM CITY   SUNNY     56  37  48 CALM      30.15S
HILL AFB       SUNNY     57  31  37 NE10G18   30.14S
LOGAN          SUNNY     57  37  47 NW3       30.15F
OGDEN          SUNNY     60  29  30 N3        30.13F
SALT LAKE CITY MOSUNNY   61  35  37 E5        30.12F
TOOELE VALLEY  SUNNY     61  39  44 NE3       30.14S
WENDOVER       SUNNY     58  29  33 SE3       30.13S
HEBER CITY       N/A     46  27  46 CALM      30.19F
WEST JORDAN    SUNNY     60  34  37 S13       30.14F

$$

UTZ011>015-024>027-221700-

CENTRAL/NORTHEAST UTAH

CITY           SKY/WX    TMP DP  RH WIND       PRES   REMARKS
PROVO AIRPORT  SUNNY     57  31  37 SE8       30.16F
MOAB/CANYONLAN SUNNY     60  35  39 E10G16    30.15F
DELTA          SUNNY     55  34  44 CALM      30.14F
PRICE          SUNNY     56  28  34 VRB3      30.20S
ROOSEVELT      SUNNY     54  34  47 SE3       30.22F
VERNAL         SUNNY     56  34  43 CALM      30.20S

$$

UTZ013>016-019>022-027-221700-

SOUTHERN UTAH

CITY           SKY/WX    TMP DP  RH WIND       PRES   REMARKS
BRYCE CANYON   SUNNY     53  26  35 CALM      30.25F
CEDAR CITY     SUNNY     55  31  39 VRB3      30.16R
MILFORD        SUNNY     51  36  56 S5        30.15S
ST GEORGE      SUNNY     62  27  26 SW5       30.08S
HANKSVILLE     SUNNY     61  32  33 N8        30.18S
BLANDING         N/A     64  27  24 NE9       30.24F

$$

REGIONAL REPORTS     COLORADO/ARIZONA

CITY           SKY/WX    TMP DP  RH WIND       PRES   REMARKS
CRAIG, CO      SUNNY     51  37  58 CALM      30.24F
GRAND JUNCTION SUNNY     55  35  47 S7        30.20F
RIFLE, CO      SUNNY     49  36  61 N3        30.25F
MONTROSE, CO   SUNNY     50  30  46 NW3       30.25F
CORTEZ, CO     SUNNY     60  19  20 E3        30.17F
COLORADO CITY    N/A     61  30  31 CALM      30.16F
PAGE, AZ       PTSUNNY   61  30  31 VRB3      30.13S
GRAND CANYON   MOSUNNY   62  20  19 S12       30.21S
KINGMAN, AZ    MOSUNNY   71  23  16 N3        30.04S
FLAGSTAFF, AZ  SUNNY     58  26  29 VRB6      30.23S

$$

REGIONAL REPORTS    NEVADA/IDAHO/WYOMING

CITY           SKY/WX    TMP DP  RH WIND       PRES   REMARKS
LAS VEGAS, NV  PTSUNNY   72  31  22 CALM      29.99S
ELY, NY        SUNNY     56  23  27 VRB3      30.17F
ELKO, NV       SUNNY     52  32  46 CALM      30.13F
POCATELLO, ID  MOSUNNY   55  34  45 W8        30.14F
BURLEY, ID     SUNNY     49  31  49 NW7       30.13F
FORT BRIDGER,    N/A     56  28  34 CALM      30.26F
EVANSTON, WY   SUNNY     54  29  38 VRB3      30.23F
ROCK SPRINGS,  SUNNY     54  22  28 W8        30.22F
KEMMERER, WY   SUNNY     52  27  37 S5        30.25S

$$




USA.gov is the U.S. government's official web portal to all federal, state and local government web resources and services.